Time,TemperatureF,DewpointF,PressureIn,WindDirection,WindDirectionDegrees,WindSpeedMPH,WindSpeedGustMPH,Humidity,HourlyPrecipIn,Conditions,Clouds,dailyrainin,SoftwareType,DateUTC
2014-01-13 00:01:00,40.6,27.9,29.89,SW,216,7.6,8.3,60,0.00,,,0.00,meteobridge,2014-01-13 05:01:00,
2014-01-13 00:02:00,40.6,27.9,29.89,South,177,4.0,8.1,60,0.00,,,0.00,meteobridge,2014-01-13 05:02:00,
2014-01-13 00:04:00,40.6,27.9,29.89,SSW,194,6.3,8.1,60,0.00,,,0.00,meteobridge,2014-01-13 05:04:00,
2014-01-13 00:09:00,40.5,27.7,29.89,South,170,6.3,6.3,60,0.00,,,0.00,meteobridge,2014-01-13 05:09:00,
2014-01-13 00:14:00,40.5,27.7,29.89,SSE,163,6.3,8.1,60,0.00,,,0.00,meteobridge,2014-01-13 05:14:00,
2014-01-13 00:19:00,40.5,27.7,29.89,SSE,147,7.6,8.3,60,0.00,,,0.00,meteobridge,2014-01-13 05:19:00,
2014-01-13 00:24:00,40.6,27.9,29.89,South,183,4.5,8.3,60,0.00,,,0.00,meteobridge,2014-01-13 05:24:00,
2014-01-13 00:29:00,40.6,27.9,29.89,SSE,159,5.4,8.1,60,0.00,,,0.00,meteobridge,2014-01-13 05:29:00,
2014-01-13 00:34:00,40.6,27.9,29.89,South,187,5.8,8.3,60,0.00,,,0.00,meteobridge,2014-01-13 05:34:00,
2014-01-13 00:39:00,40.6,27.9,29.89,South,184,6.3,7.6,60,0.00,,,0.00,meteobridge,2014-01-13 05:39:00,
2014-01-13 00:44:00,40.6,27.9,29.92,SSW,194,8.7,8.7,60,0.00,,,0.00,meteobridge,2014-01-13 05:44:00,
2014-01-13 00:49:00,40.6,27.9,29.92,South,171,5.8,8.1,60,0.00,,,0.00,meteobridge,2014-01-13 05:49:00,
2014-01-13 00:54:00,40.6,27.9,29.92,South,190,5.4,8.7,60,0.00,,,0.00,meteobridge,2014-01-13 05:54:00,
2014-01-13 00:59:00,40.6,27.9,29.89,South,191,4.0,7.6,60,0.00,,,0.00,meteobridge,2014-01-13 05:59:00,
2014-01-13 01:04:00,40.5,27.7,29.89,SSW,193,5.4,7.6,60,0.00,,,0.00,meteobridge,2014-01-13 06:04:00,
2014-01-13 01:09:00,40.5,27.7,29.89,South,190,4.9,6.3,60,0.00,,,0.00,meteobridge,2014-01-13 06:09:00,
2014-01-13 01:14:00,40.5,27.7,29.89,SSE,154,5.8,8.7,60,0.00,,,0.00,meteobridge,2014-01-13 06:14:00,
2014-01-13 01:19:00,40.6,27.9,29.89,SSW,192,8.1,8.7,60,0.00,,,0.00,meteobridge,2014-01-13 06:19:00,
2014-01-13 01:25:00,40.6,27.9,29.89,SSE,168,7.6,8.7,60,0.00,,,0.00,meteobridge,2014-01-13 06:25:00,
2014-01-13 01:30:00,40.6,27.9,29.89,South,175,5.8,8.1,60,0.00,,,0.00,meteobridge,2014-01-13 06:30:00,
2014-01-13 01:35:00,40.6,27.9,29.89,South,187,8.3,8.3,60,0.00,,,0.00,meteobridge,2014-01-13 06:35:00,
2014-01-13 01:40:00,40.6,27.9,29.89,SSE,158,8.3,8.3,60,0.00,,,0.00,meteobridge,2014-01-13 06:40:00,
2014-01-13 01:45:00,40.8,27.7,29.89,South,183,8.7,10.5,59,0.00,,,0.00,meteobridge,2014-01-13 06:45:00,
2014-01-13 01:50:00,41.0,27.9,29.89,South,176,8.1,10.5,59,0.00,,,0.00,meteobridge,2014-01-13 06:50:00,
2014-01-13 01:55:00,41.0,27.3,29.89,SSE,149,5.8,8.7,58,0.00,,,0.00,meteobridge,2014-01-13 06:55:00,
2014-01-13 02:00:00,41.0,27.3,29.89,South,170,8.7,10.1,58,0.00,,,0.00,meteobridge,2014-01-13 07:00:00,
2014-01-13 02:05:00,41.2,27.5,29.89,SSE,156,7.6,8.3,58,0.00,,,0.00,meteobridge,2014-01-13 07:05:00,
2014-01-13 02:10:00,41.2,27.5,29.89,South,187,5.8,8.1,58,0.00,,,0.00,meteobridge,2014-01-13 07:10:00,
2014-01-13 02:15:00,41.2,27.5,29.89,South,188,5.8,10.1,58,0.00,,,0.00,meteobridge,2014-01-13 07:15:00,
2014-01-13 02:20:00,41.2,27.5,29.89,South,176,5.8,10.1,58,0.00,,,0.00,meteobridge,2014-01-13 07:20:00,
2014-01-13 02:26:00,41.2,27.1,29.89,South,172,8.3,8.3,57,0.00,,,0.00,meteobridge,2014-01-13 07:26:00,
2014-01-13 02:31:00,41.2,27.1,29.89,SSE,154,6.3,8.3,57,0.00,,,0.00,meteobridge,2014-01-13 07:31:00,
2014-01-13 02:36:00,41.4,27.3,29.89,SSE,154,9.2,10.1,57,0.00,,,0.00,meteobridge,2014-01-13 07:36:00,
2014-01-13 02:41:00,41.5,27.5,29.89,SSW,206,8.3,8.7,57,0.00,,,0.00,meteobridge,2014-01-13 07:41:00,
2014-01-13 02:46:00,41.5,27.5,29.89,South,179,8.3,8.7,57,0.00,,,0.00,meteobridge,2014-01-13 07:46:00,
2014-01-13 02:51:00,41.5,27.5,29.89,SW,221,5.4,10.5,57,0.00,,,0.00,meteobridge,2014-01-13 07:51:00,
2014-01-13 02:56:00,41.5,27.5,29.89,SSW,195,8.3,10.5,57,0.00,,,0.00,meteobridge,2014-01-13 07:56:00,
2014-01-13 03:01:00,41.7,27.7,29.89,South,190,10.5,10.5,57,0.00,,,0.00,meteobridge,2014-01-13 08:01:00,
2014-01-13 03:06:00,41.7,27.7,29.89,SSE,165,6.3,8.3,57,0.00,,,0.00,meteobridge,2014-01-13 08:06:00,
2014-01-13 03:11:00,41.9,27.3,29.89,SW,226,7.6,10.5,56,0.00,,,0.00,meteobridge,2014-01-13 08:11:00,
2014-01-13 03:16:00,42.1,27.5,29.89,SSE,163,7.6,10.1,56,0.00,,,0.00,meteobridge,2014-01-13 08:16:00,
2014-01-13 03:21:00,42.1,27.5,29.89,South,184,8.1,9.6,56,0.00,,,0.00,meteobridge,2014-01-13 08:21:00,
2014-01-13 03:26:00,42.1,27.5,29.89,South,185,10.1,10.5,56,0.00,,,0.00,meteobridge,2014-01-13 08:26:00,
2014-01-13 03:31:00,42.1,27.5,29.89,SSE,157,5.8,8.7,56,0.00,,,0.00,meteobridge,2014-01-13 08:31:00,
2014-01-13 03:36:00,42.1,27.5,29.89,South,185,10.5,11.0,56,0.00,,,0.00,meteobridge,2014-01-13 08:36:00,
2014-01-13 03:42:00,42.3,27.7,29.89,SSE,163,8.1,8.7,56,0.00,,,0.00,meteobridge,2014-01-13 08:42:00,
2014-01-13 03:47:00,42.1,27.5,29.89,SSE,165,6.3,8.7,56,0.00,,,0.00,meteobridge,2014-01-13 08:47:00,
2014-01-13 03:52:00,42.3,27.7,29.89,South,184,4.9,8.7,56,0.00,,,0.00,meteobridge,2014-01-13 08:52:00,
2014-01-13 03:57:00,42.3,27.7,29.89,South,190,6.3,8.1,56,0.00,,,0.00,meteobridge,2014-01-13 08:57:00,
2014-01-13 04:02:00,42.1,27.5,29.89,South,188,7.6,8.3,56,0.00,,,0.00,meteobridge,2014-01-13 09:02:00,
2014-01-13 04:07:00,42.1,27.5,29.89,South,190,6.7,8.7,56,0.00,,,0.00,meteobridge,2014-01-13 09:07:00,
2014-01-13 04:12:00,42.1,27.5,29.89,SSE,168,5.8,8.3,56,0.00,,,0.00,meteobridge,2014-01-13 09:12:00,
2014-01-13 04:17:00,42.3,27.7,29.89,South,179,6.3,8.1,56,0.00,,,0.00,meteobridge,2014-01-13 09:17:00,
2014-01-13 04:22:00,42.4,27.9,29.89,South,191,8.1,8.7,56,0.00,,,0.00,meteobridge,2014-01-13 09:22:00,
2014-01-13 04:27:00,42.4,27.9,29.89,SSW,198,4.0,8.1,56,0.00,,,0.00,meteobridge,2014-01-13 09:27:00,
2014-01-13 04:32:00,42.4,27.9,29.89,South,177,8.1,11.0,56,0.00,,,0.00,meteobridge,2014-01-13 09:32:00,
2014-01-13 04:37:00,42.6,28.0,29.89,SSE,153,10.1,10.5,56,0.00,,,0.00,meteobridge,2014-01-13 09:37:00,
2014-01-13 04:42:00,42.8,28.2,29.89,SSW,200,10.1,10.5,56,0.00,,,0.00,meteobridge,2014-01-13 09:42:00,
2014-01-13 04:47:00,42.8,27.7,29.89,South,179,7.6,9.2,55,0.00,,,0.00,meteobridge,2014-01-13 09:47:00,
2014-01-13 04:52:00,42.8,27.7,29.89,SSE,156,6.3,8.3,55,0.00,,,0.00,meteobridge,2014-01-13 09:52:00,
2014-01-13 04:57:00,42.8,27.7,29.89,South,190,9.6,9.6,55,0.00,,,0.00,meteobridge,2014-01-13 09:57:00,
2014-01-13 05:02:00,43.0,27.9,29.89,South,191,10.1,10.1,55,0.00,,,0.00,meteobridge,2014-01-13 10:02:00,
2014-01-13 05:07:00,43.0,27.9,29.89,SSE,147,6.3,10.5,55,0.00,,,0.00,meteobridge,2014-01-13 10:07:00,
2014-01-13 05:13:00,43.0,27.9,29.89,SSE,156,8.3,11.0,55,0.00,,,0.00,meteobridge,2014-01-13 10:13:00,
2014-01-13 05:18:00,43.0,27.9,29.86,South,177,8.3,8.7,55,0.00,,,0.00,meteobridge,2014-01-13 10:18:00,
2014-01-13 05:23:00,43.0,27.9,29.86,South,182,6.3,8.7,55,0.00,,,0.00,meteobridge,2014-01-13 10:23:00,
2014-01-13 05:28:00,43.0,27.9,29.86,South,170,5.4,8.3,55,0.00,,,0.00,meteobridge,2014-01-13 10:28:00,
2014-01-13 05:33:00,43.0,27.9,29.83,SSW,206,9.2,11.0,55,0.00,,,0.00,meteobridge,2014-01-13 10:33:00,
2014-01-13 05:38:00,43.0,27.9,29.83,South,173,5.8,8.7,55,0.00,,,0.00,meteobridge,2014-01-13 10:38:00,
2014-01-13 05:43:00,43.2,28.6,29.83,South,181,5.8,11.4,56,0.00,,,0.00,meteobridge,2014-01-13 10:43:00,
2014-01-13 05:48:00,43.3,28.8,30.21,SSE,168,8.7,11.0,56,0.00,,,0.00,meteobridge,2014-01-13 10:48:00,
2014-01-13 05:53:00,43.3,28.8,30.21,South,174,8.7,9.6,56,0.00,,,0.00,meteobridge,2014-01-13 10:53:00,
2014-01-13 05:58:00,43.3,28.2,30.21,South,177,8.3,13.6,55,0.00,,,0.00,meteobridge,2014-01-13 10:58:00,
2014-01-13 06:03:00,43.3,28.2,30.57,South,171,7.6,10.5,55,0.00,,,0.00,meteobridge,2014-01-13 11:03:00,
2014-01-13 06:08:00,43.3,28.2,30.57,SSE,164,6.3,8.7,55,0.00,,,0.00,meteobridge,2014-01-13 11:08:00,
2014-01-13 06:13:00,43.3,28.2,30.57,South,173,6.3,11.0,55,0.00,,,0.00,meteobridge,2014-01-13 11:13:00,
2014-01-13 06:19:00,43.7,28.6,30.48,South,170,5.8,10.1,55,0.00,,,0.00,meteobridge,2014-01-13 11:19:00,
2014-01-13 06:24:00,43.7,28.6,30.48,SSW,197,5.8,10.5,55,0.00,,,0.00,meteobridge,2014-01-13 11:24:00,
2014-01-13 06:29:00,43.7,28.6,30.48,SSW,201,7.6,8.7,55,0.00,,,0.00,meteobridge,2014-01-13 11:29:00,
2014-01-13 06:34:00,43.9,29.1,30.48,South,172,5.4,10.1,56,0.00,,,0.00,meteobridge,2014-01-13 11:34:00,
2014-01-13 06:39:00,43.7,29.1,30.48,SSE,154,7.6,8.1,56,0.00,,,0.00,meteobridge,2014-01-13 11:39:00,
2014-01-13 06:44:00,43.9,29.1,30.48,South,178,5.8,8.1,56,0.00,,,0.00,meteobridge,2014-01-13 11:44:00,
2014-01-13 06:49:00,43.7,29.1,30.45,SSE,161,3.1,5.8,56,0.00,,,0.00,meteobridge,2014-01-13 11:49:00,
2014-01-13 06:54:00,43.7,29.1,30.45,SSE,147,8.1,8.1,56,0.00,,,0.00,meteobridge,2014-01-13 11:54:00,
2014-01-13 06:59:00,43.5,28.9,30.45,SSE,153,5.8,8.1,56,0.00,,,0.00,meteobridge,2014-01-13 11:59:00,
2014-01-13 07:04:00,43.5,28.9,30.45,SSW,207,6.3,6.3,56,0.00,,,0.00,meteobridge,2014-01-13 12:04:00,
2014-01-13 07:09:00,43.5,28.9,30.45,South,173,5.8,8.1,56,0.00,,,0.00,meteobridge,2014-01-13 12:09:00,
2014-01-13 07:14:00,43.5,28.9,30.39,SSE,164,5.4,5.8,56,0.00,,,0.00,meteobridge,2014-01-13 12:14:00,
2014-01-13 07:19:00,43.7,29.5,30.39,SSW,203,3.6,6.3,57,0.00,,,0.00,meteobridge,2014-01-13 12:19:00,
2014-01-13 07:24:00,43.9,29.7,30.39,South,182,5.8,7.6,57,0.00,,,0.00,meteobridge,2014-01-13 12:24:00,
2014-01-13 07:30:00,43.9,29.7,30.36,SW,234,6.3,7.6,57,0.00,,,0.00,meteobridge,2014-01-13 12:30:00,
2014-01-13 07:35:00,44.1,29.8,30.36,South,182,5.8,6.3,57,0.00,,,0.00,meteobridge,2014-01-13 12:35:00,
2014-01-13 07:40:00,44.2,30.0,30.36,SSW,201,5.4,8.7,57,0.00,,,0.00,meteobridge,2014-01-13 12:40:00,
2014-01-13 07:45:00,44.2,30.0,30.36,SSW,192,8.1,8.3,57,0.00,,,0.00,meteobridge,2014-01-13 12:45:00,
2014-01-13 07:50:00,44.2,30.0,30.36,SSW,208,5.8,8.7,57,0.00,,,0.00,meteobridge,2014-01-13 12:50:00,
2014-01-13 07:55:00,44.4,30.2,30.36,SSW,213,8.3,10.1,57,0.00,,,0.00,meteobridge,2014-01-13 12:55:00,
2014-01-13 08:00:00,45.0,30.6,30.33,SSE,167,6.3,8.3,57,0.00,,,0.00,meteobridge,2014-01-13 13:00:00,
2014-01-13 08:05:00,45.0,30.6,30.33,South,172,6.3,8.7,57,0.00,,,0.00,meteobridge,2014-01-13 13:05:00,
2014-01-13 08:10:00,44.8,30.6,30.33,South,184,8.3,8.7,57,0.00,,,0.00,meteobridge,2014-01-13 13:10:00,
2014-01-13 08:15:00,44.8,30.9,30.36,SSE,167,6.7,10.1,58,0.00,,,0.00,meteobridge,2014-01-13 13:15:00,
2014-01-13 08:20:00,44.8,30.9,30.36,SSW,211,6.3,8.7,58,0.00,,,0.00,meteobridge,2014-01-13 13:20:00,
2014-01-13 08:25:00,45.0,31.1,30.36,SSW,199,4.9,8.3,58,0.00,,,0.00,meteobridge,2014-01-13 13:25:00,
2014-01-13 08:30:00,45.1,31.6,30.36,SSE,167,7.2,10.1,59,0.00,,,0.00,meteobridge,2014-01-13 13:30:00,
2014-01-13 08:35:00,45.1,31.6,30.36,South,170,9.2,10.5,59,0.00,,,0.00,meteobridge,2014-01-13 13:35:00,
2014-01-13 08:40:00,45.3,31.8,30.36,SSW,198,5.4,10.5,59,0.00,,,0.00,meteobridge,2014-01-13 13:40:00,
2014-01-13 08:45:00,45.3,32.2,30.36,SSW,213,8.7,9.2,60,0.00,,,0.00,meteobridge,2014-01-13 13:45:00,
2014-01-13 08:51:00,45.3,32.2,30.36,South,176,5.4,10.1,60,0.00,,,0.00,meteobridge,2014-01-13 13:51:00,
2014-01-13 08:56:00,45.3,32.2,30.36,South,184,8.3,9.6,60,0.00,,,0.00,meteobridge,2014-01-13 13:56:00,
2014-01-13 09:01:00,45.5,32.9,30.36,SSW,202,5.8,8.7,61,0.00,,,0.00,meteobridge,2014-01-13 14:01:00,
2014-01-13 09:06:00,45.9,33.3,30.36,South,178,6.3,10.5,61,0.00,,,0.00,meteobridge,2014-01-13 14:06:00,
2014-01-13 09:11:00,45.9,33.3,30.36,SSW,208,5.8,7.6,61,0.00,,,0.00,meteobridge,2014-01-13 14:11:00,
2014-01-13 09:16:00,46.0,33.8,30.36,SSW,197,8.3,11.0,62,0.00,,,0.00,meteobridge,2014-01-13 14:16:00,
2014-01-13 09:21:00,46.2,34.0,30.36,SSW,202,12.8,12.8,62,0.00,,,0.00,meteobridge,2014-01-13 14:21:00,
2014-01-13 09:26:00,46.4,34.5,30.36,SSW,195,4.9,10.1,63,0.00,,,0.00,meteobridge,2014-01-13 14:26:00,
2014-01-13 09:31:00,46.4,34.5,30.39,SSW,205,7.6,10.1,63,0.00,,,0.00,meteobridge,2014-01-13 14:31:00,
2014-01-13 09:36:00,46.4,34.9,30.39,SSW,195,8.7,10.1,64,0.00,,,0.00,meteobridge,2014-01-13 14:36:00,
2014-01-13 09:41:00,46.4,34.9,30.39,SSW,202,8.1,8.7,64,0.00,,,0.00,meteobridge,2014-01-13 14:41:00,
2014-01-13 09:46:00,46.6,35.4,30.42,SW,222,8.3,8.7,65,0.00,,,0.00,meteobridge,2014-01-13 14:46:00,
2014-01-13 09:51:00,46.8,35.6,30.42,South,176,7.6,12.8,65,0.00,,,0.00,meteobridge,2014-01-13 14:51:00,
2014-01-13 09:56:00,46.9,36.1,30.42,SW,220,6.3,11.9,66,0.00,,,0.00,meteobridge,2014-01-13 14:56:00,
2014-01-13 10:01:00,46.9,36.1,30.42,South,191,5.8,11.0,66,0.00,,,0.00,meteobridge,2014-01-13 15:01:00,
2014-01-13 10:07:00,47.1,36.7,30.42,SSW,209,7.6,8.7,67,0.00,,,0.00,meteobridge,2014-01-13 15:07:00,
2014-01-13 10:12:00,47.3,36.9,30.42,South,182,6.3,11.0,67,0.00,,,0.00,meteobridge,2014-01-13 15:12:00,
2014-01-13 10:17:00,47.3,37.2,30.45,South,180,7.6,11.0,68,0.00,,,0.00,meteobridge,2014-01-13 15:17:00,
2014-01-13 10:22:00,47.7,37.6,30.45,SW,224,15.0,15.0,68,0.00,,,0.00,meteobridge,2014-01-13 15:22:00,
2014-01-13 10:27:00,47.8,38.1,30.45,SSW,194,10.1,15.4,69,0.00,,,0.00,meteobridge,2014-01-13 15:27:00,
2014-01-13 10:32:00,48.0,38.3,30.48,SSW,210,7.6,12.8,69,0.00,,,0.00,meteobridge,2014-01-13 15:32:00,
2014-01-13 10:37:00,48.4,38.7,30.48,SW,221,13.2,13.2,69,0.00,,,0.00,meteobridge,2014-01-13 15:37:00,
2014-01-13 10:42:00,48.6,39.2,30.48,South,175,11.0,15.0,70,0.00,,,0.00,meteobridge,2014-01-13 15:42:00,
2014-01-13 10:47:00,48.6,39.2,30.48,SSW,209,12.3,12.8,70,0.00,,,0.00,meteobridge,2014-01-13 15:47:00,
2014-01-13 10:52:00,48.7,39.4,30.48,SSW,211,8.7,15.9,70,0.00,,,0.00,meteobridge,2014-01-13 15:52:00,
2014-01-13 10:57:00,48.7,39.4,30.48,SSW,213,8.1,15.0,70,0.00,,,0.00,meteobridge,2014-01-13 15:57:00,
2014-01-13 11:02:00,48.7,39.4,30.51,SW,232,11.0,15.4,70,0.00,,,0.00,meteobridge,2014-01-13 16:02:00,
2014-01-13 11:07:00,48.6,39.6,30.51,SW,226,8.1,11.0,71,0.00,,,0.00,meteobridge,2014-01-13 16:07:00,
2014-01-13 11:12:00,48.6,39.6,30.51,SW,214,12.8,16.8,71,0.00,,,0.00,meteobridge,2014-01-13 16:12:00,
2014-01-13 11:18:00,48.6,39.6,30.51,SSW,196,12.8,12.8,71,0.00,,,0.00,meteobridge,2014-01-13 16:18:00,
2014-01-13 11:23:00,48.6,39.6,30.51,SSW,194,7.6,11.0,71,0.00,,,0.00,meteobridge,2014-01-13 16:23:00,
2014-01-13 11:28:00,48.6,39.6,30.51,SW,226,8.7,14.1,71,0.00,,,0.00,meteobridge,2014-01-13 16:28:00,
2014-01-13 11:33:00,48.6,39.6,30.48,SW,217,10.5,13.6,71,0.00,,,0.00,meteobridge,2014-01-13 16:33:00,
2014-01-13 11:38:00,48.6,39.9,30.48,SSW,212,5.8,10.5,72,0.00,,,0.00,meteobridge,2014-01-13 16:38:00,
2014-01-13 11:43:00,48.6,39.9,30.48,SW,234,7.6,10.1,72,0.00,,,0.00,meteobridge,2014-01-13 16:43:00,
2014-01-13 11:48:00,48.6,39.9,30.48,SSW,203,8.7,17.4,72,0.00,,,0.00,meteobridge,2014-01-13 16:48:00,
2014-01-13 11:53:00,48.6,39.9,30.48,SW,236,8.3,11.9,72,0.00,,,0.00,meteobridge,2014-01-13 16:53:00,
2014-01-13 11:58:00,48.6,39.9,30.48,South,191,11.0,11.4,72,0.00,,,0.00,meteobridge,2014-01-13 16:58:00,
2014-01-13 12:03:00,48.7,40.1,30.45,SSW,196,10.5,12.8,72,0.00,,,0.00,meteobridge,2014-01-13 17:03:00,
2014-01-13 12:08:00,48.7,40.1,30.45,SW,221,11.0,15.0,72,0.00,,,0.00,meteobridge,2014-01-13 17:08:00,
2014-01-13 12:13:00,48.7,40.1,30.45,SSW,196,11.0,12.3,72,0.00,,,0.00,meteobridge,2014-01-13 17:13:00,
2014-01-13 12:18:00,48.7,40.1,30.45,SW,218,7.6,16.3,72,0.00,,,0.00,meteobridge,2014-01-13 17:18:00,
2014-01-13 12:23:00,48.7,40.1,30.45,SW,221,7.6,11.4,72,0.00,,,0.00,meteobridge,2014-01-13 17:23:00,
2014-01-13 12:28:00,48.7,40.1,30.45,SSW,203,11.0,11.0,72,0.00,,,0.00,meteobridge,2014-01-13 17:28:00,
2014-01-13 12:34:00,48.7,40.1,30.45,SSW,198,7.2,8.7,72,0.00,,,0.00,meteobridge,2014-01-13 17:34:00,
2014-01-13 12:39:00,48.7,40.1,30.45,SW,222,8.3,11.0,72,0.00,,,0.00,meteobridge,2014-01-13 17:39:00,
2014-01-13 12:43:00,48.7,40.5,30.45,SSW,207,10.1,11.9,73,0.00,,,0.00,meteobridge,2014-01-13 17:43:00,
2014-01-13 12:49:00,48.7,40.5,30.45,SW,233,7.6,11.0,73,0.00,,,0.00,meteobridge,2014-01-13 17:49:00,
2014-01-13 12:54:00,48.7,40.5,30.45,SW,217,5.8,8.7,73,0.00,,,0.00,meteobridge,2014-01-13 17:54:00,
2014-01-13 12:59:00,48.7,40.5,30.45,SW,231,8.1,10.5,73,0.00,,,0.00,meteobridge,2014-01-13 17:59:00,
2014-01-13 13:04:00,48.7,40.5,30.42,SW,222,13.2,13.2,73,0.00,,,0.00,meteobridge,2014-01-13 18:04:00,
2014-01-13 13:09:00,48.6,40.3,30.42,SSW,206,8.7,10.5,73,0.00,,,0.00,meteobridge,2014-01-13 18:09:00,
2014-01-13 13:14:00,48.6,40.3,30.42,SW,231,5.8,12.8,73,0.00,,,0.00,meteobridge,2014-01-13 18:14:00,
2014-01-13 13:19:00,48.7,40.5,30.42,SSW,206,8.3,13.2,73,0.00,,,0.00,meteobridge,2014-01-13 18:19:00,
2014-01-13 13:24:00,48.7,40.5,30.42,SSE,168,4.0,10.1,73,0.00,,,0.00,meteobridge,2014-01-13 18:24:00,
2014-01-13 13:29:00,48.7,40.5,30.39,SSW,200,8.7,11.0,73,0.00,,,0.00,meteobridge,2014-01-13 18:29:00,
2014-01-13 13:34:00,48.7,40.5,30.39,SW,234,11.0,12.8,73,0.00,,,0.00,meteobridge,2014-01-13 18:34:00,
2014-01-13 13:39:00,48.7,40.5,30.39,WSW,252,11.0,11.0,73,0.00,,,0.00,meteobridge,2014-01-13 18:39:00,
2014-01-13 13:44:00,48.7,40.5,30.39,SW,227,8.7,13.2,73,0.00,,,0.00,meteobridge,2014-01-13 18:44:00,
2014-01-13 13:49:00,48.7,40.5,30.39,SW,235,8.1,12.8,73,0.00,,,0.00,meteobridge,2014-01-13 18:49:00,
2014-01-13 13:55:00,48.7,40.8,30.39,SW,217,10.5,11.0,74,0.00,,,0.00,meteobridge,2014-01-13 18:55:00,
2014-01-13 14:00:00,48.7,40.8,30.39,SSW,212,7.6,10.1,74,0.00,,,0.00,meteobridge,2014-01-13 19:00:00,
2014-01-13 14:05:00,48.7,40.8,30.39,SW,226,8.7,11.0,74,0.00,,,0.00,meteobridge,2014-01-13 19:05:00,
2014-01-13 14:10:00,48.9,41.0,30.39,SW,233,11.0,12.3,74,0.00,,,0.00,meteobridge,2014-01-13 19:10:00,
2014-01-13 14:15:00,48.9,41.0,30.39,SW,224,10.5,10.5,74,0.00,,,0.00,meteobridge,2014-01-13 19:15:00,
2014-01-13 14:20:00,49.1,41.2,30.39,SW,234,13.2,13.2,74,0.00,,,0.00,meteobridge,2014-01-13 19:20:00,
2014-01-13 14:25:00,49.1,41.2,30.39,SW,223,10.1,11.0,74,0.00,,,0.00,meteobridge,2014-01-13 19:25:00,
2014-01-13 14:30:00,49.3,41.4,30.39,SW,233,10.1,15.4,74,0.00,,,0.00,meteobridge,2014-01-13 19:30:00,
2014-01-13 14:35:00,49.3,41.4,30.39,SW,231,8.3,12.3,74,0.00,,,0.00,meteobridge,2014-01-13 19:35:00,
2014-01-13 14:40:00,49.3,41.4,30.39,SSW,203,11.0,11.0,74,0.00,,,0.00,meteobridge,2014-01-13 19:40:00,
2014-01-13 14:45:00,49.3,41.4,30.39,WSW,239,6.3,12.8,74,0.00,,,0.00,meteobridge,2014-01-13 19:45:00,
2014-01-13 14:50:00,49.3,41.4,30.39,SW,229,8.3,10.5,74,0.00,,,0.00,meteobridge,2014-01-13 19:50:00,
2014-01-13 14:55:00,49.3,41.4,30.39,SW,214,10.5,11.0,74,0.00,,,0.00,meteobridge,2014-01-13 19:55:00,
2014-01-13 15:00:00,49.3,41.0,30.39,WSW,249,10.5,14.1,73,0.00,,,0.00,meteobridge,2014-01-13 20:00:00,
2014-01-13 15:06:00,49.5,41.2,30.39,SW,224,6.3,11.9,73,0.00,,,0.00,meteobridge,2014-01-13 20:06:00,
2014-01-13 15:11:00,49.6,41.4,30.39,WSW,254,11.0,15.0,73,0.00,,,0.00,meteobridge,2014-01-13 20:11:00,
2014-01-13 15:16:00,49.6,41.4,30.30,SW,228,6.3,12.8,73,0.00,,,0.00,meteobridge,2014-01-13 20:16:00,
2014-01-13 15:21:00,49.6,41.4,30.30,SW,231,5.8,8.3,73,0.00,,,0.00,meteobridge,2014-01-13 20:21:00,
2014-01-13 15:26:00,49.6,41.4,30.30,WSW,251,6.3,11.0,73,0.00,,,0.00,meteobridge,2014-01-13 20:26:00,
2014-01-13 15:31:00,49.5,41.2,30.30,SSW,198,8.1,10.1,73,0.00,,,0.00,meteobridge,2014-01-13 20:31:00,
2014-01-13 15:36:00,49.5,41.2,30.30,SW,224,6.7,8.3,73,0.00,,,0.00,meteobridge,2014-01-13 20:36:00,
2014-01-13 15:41:00,49.5,41.2,30.30,West,263,5.4,11.0,73,0.00,,,0.00,meteobridge,2014-01-13 20:41:00,
2014-01-13 15:46:00,49.5,41.2,30.27,SW,226,5.8,11.0,73,0.00,,,0.00,meteobridge,2014-01-13 20:46:00,
2014-01-13 15:51:00,49.5,41.2,30.27,WSW,252,8.3,8.7,73,0.00,,,0.00,meteobridge,2014-01-13 20:51:00,
2014-01-13 15:56:00,49.5,41.2,30.27,West,262,4.0,11.0,73,0.00,,,0.00,meteobridge,2014-01-13 20:56:00,
2014-01-13 16:02:00,49.5,41.2,30.27,WNW,283,6.3,9.2,73,0.00,,,0.00,meteobridge,2014-01-13 21:02:00,
2014-01-13 16:07:00,49.6,41.0,30.27,West,271,10.1,10.5,72,0.00,,,0.00,meteobridge,2014-01-13 21:07:00,
2014-01-13 16:11:00,49.6,41.0,30.27,WSW,238,8.3,12.3,72,0.00,,,0.00,meteobridge,2014-01-13 21:11:00,
2014-01-13 16:16:00,49.5,40.8,30.24,SW,218,3.6,5.8,72,0.00,,,0.00,meteobridge,2014-01-13 21:16:00,
2014-01-13 16:22:00,49.5,40.5,30.24,WSW,239,9.2,9.2,71,0.00,,,0.00,meteobridge,2014-01-13 21:22:00,
2014-01-13 16:27:00,49.3,40.3,30.24,SW,231,8.7,8.7,71,0.00,,,0.00,meteobridge,2014-01-13 21:27:00,
2014-01-13 16:32:00,49.3,40.3,30.24,WSW,242,7.6,10.5,71,0.00,,,0.00,meteobridge,2014-01-13 21:32:00,
2014-01-13 16:37:00,49.1,40.1,30.24,SW,233,5.8,11.0,71,0.00,,,0.00,meteobridge,2014-01-13 21:37:00,
2014-01-13 16:42:00,49.1,40.1,30.24,South,187,8.1,8.1,71,0.00,,,0.00,meteobridge,2014-01-13 21:42:00,
2014-01-13 16:47:00,49.1,40.1,30.24,WSW,239,3.6,6.3,71,0.00,,,0.00,meteobridge,2014-01-13 21:47:00,
2014-01-13 16:52:00,49.1,40.5,30.24,SSW,194,4.9,8.3,72,0.00,,,0.00,meteobridge,2014-01-13 21:52:00,
2014-01-13 16:57:00,48.9,40.3,30.24,South,185,5.4,6.3,72,0.00,,,0.00,meteobridge,2014-01-13 21:57:00,
2014-01-13 17:02:00,48.9,40.3,30.24,SW,215,3.6,7.6,72,0.00,,,0.00,meteobridge,2014-01-13 22:02:00,
2014-01-13 17:07:00,48.9,40.3,30.24,SSW,208,5.8,7.6,72,0.00,,,0.00,meteobridge,2014-01-13 22:07:00,
2014-01-13 17:12:00,48.7,40.1,30.24,SW,235,3.6,5.4,72,0.00,,,0.00,meteobridge,2014-01-13 22:12:00,
2014-01-13 17:17:00,48.9,40.3,30.24,West,260,3.6,5.8,72,0.00,,,0.00,meteobridge,2014-01-13 22:17:00,
2014-01-13 17:22:00,48.7,40.1,30.24,WSW,252,3.6,5.8,72,0.00,,,0.00,meteobridge,2014-01-13 22:22:00,
2014-01-13 17:27:00,48.7,40.1,30.24,SW,222,4.0,4.0,72,0.00,,,0.00,meteobridge,2014-01-13 22:27:00,
2014-01-13 17:32:00,48.7,40.1,30.24,West,262,5.4,5.8,72,0.00,,,0.00,meteobridge,2014-01-13 22:32:00,
2014-01-13 17:38:00,48.6,39.9,30.24,WSW,244,3.6,4.0,72,0.00,,,0.00,meteobridge,2014-01-13 22:38:00,
2014-01-13 17:43:00,48.6,39.9,30.24,SW,232,5.8,5.8,72,0.00,,,0.00,meteobridge,2014-01-13 22:43:00,
2014-01-13 17:48:00,48.4,39.7,30.24,SW,214,3.6,4.9,72,0.00,,,0.00,meteobridge,2014-01-13 22:48:00,
2014-01-13 17:53:00,48.4,40.1,30.24,SW,230,3.1,4.0,73,0.00,,,0.00,meteobridge,2014-01-13 22:53:00,
2014-01-13 17:58:00,48.2,39.9,30.24,WSW,246,3.1,4.0,73,0.00,,,0.00,meteobridge,2014-01-13 22:58:00,
2014-01-13 18:03:00,48.2,39.9,30.24,WSW,247,3.6,4.9,73,0.00,,,0.00,meteobridge,2014-01-13 23:03:00,
2014-01-13 18:08:00,48.2,39.9,30.24,WSW,253,3.1,3.6,73,0.00,,,0.00,meteobridge,2014-01-13 23:08:00,
2014-01-13 18:13:00,48.2,39.9,30.24,SW,234,3.6,3.6,73,0.00,,,0.00,meteobridge,2014-01-13 23:13:00,
2014-01-13 18:18:00,48.0,40.1,30.24,WSW,237,2.7,4.9,74,0.00,,,0.00,meteobridge,2014-01-13 23:18:00,
2014-01-13 18:23:00,48.0,40.1,30.24,WSW,239,4.0,4.0,74,0.00,,,0.00,meteobridge,2014-01-13 23:23:00,
2014-01-13 18:28:00,48.0,40.1,30.24,SW,222,3.1,4.0,74,0.00,,,0.00,meteobridge,2014-01-13 23:28:00,
2014-01-13 18:33:00,47.8,40.3,30.21,WSW,237,4.0,5.8,75,0.00,,,0.00,meteobridge,2014-01-13 23:33:00,
2014-01-13 18:38:00,47.8,40.3,30.21,WSW,243,3.1,5.4,75,0.00,,,0.00,meteobridge,2014-01-13 23:38:00,
2014-01-13 18:43:00,47.7,40.1,30.21,West,270,3.1,5.4,75,0.00,,,0.00,meteobridge,2014-01-13 23:43:00,
2014-01-13 18:48:00,47.7,40.1,30.18,SW,232,5.4,6.3,75,0.00,,,0.00,meteobridge,2014-01-13 23:48:00,
2014-01-13 18:53:00,47.5,40.3,30.18,WSW,238,4.0,5.4,76,0.00,,,0.00,meteobridge,2014-01-13 23:53:00,
2014-01-13 18:59:00,47.3,40.1,30.18,WSW,246,4.9,4.9,76,0.00,,,0.00,meteobridge,2014-01-13 23:59:00,
2014-01-13 19:04:00,47.1,39.9,30.12,SW,228,2.7,5.4,76,0.00,,,0.00,meteobridge,2014-01-14 00:04:00,
2014-01-13 19:09:00,47.1,39.9,30.12,WSW,237,4.9,4.9,76,0.00,,,0.00,meteobridge,2014-01-14 00:09:00,
2014-01-13 19:14:00,46.9,40.1,30.06,SW,232,5.4,5.4,77,0.00,,,0.00,meteobridge,2014-01-14 00:14:00,
2014-01-13 19:19:00,46.8,39.9,30.06,SW,214,3.6,4.9,77,0.00,,,0.00,meteobridge,2014-01-14 00:19:00,
2014-01-13 19:24:00,46.8,39.9,30.06,SW,220,2.7,4.9,77,0.00,,,0.00,meteobridge,2014-01-14 00:24:00,
2014-01-13 19:29:00,46.6,39.7,30.03,SW,220,3.1,4.0,77,0.00,,,0.00,meteobridge,2014-01-14 00:29:00,
2014-01-13 19:34:00,46.6,40.1,30.03,SW,235,3.6,4.0,78,0.00,,,0.00,meteobridge,2014-01-14 00:34:00,
2014-01-13 19:39:00,46.4,39.9,30.03,WSW,239,5.4,5.4,78,0.00,,,0.00,meteobridge,2014-01-14 00:39:00,
2014-01-13 19:45:00,46.4,39.9,30.03,WSW,239,3.1,4.0,78,0.00,,,0.00,meteobridge,2014-01-14 00:45:00,
2014-01-13 19:50:00,46.2,39.7,30.03,SW,234,3.6,3.6,78,0.00,,,0.00,meteobridge,2014-01-14 00:50:00,
2014-01-13 19:55:00,46.2,40.1,30.03,WSW,246,2.7,5.4,79,0.00,,,0.00,meteobridge,2014-01-14 00:55:00,
2014-01-13 20:00:00,46.2,40.1,30.01,West,259,3.1,5.4,79,0.00,,,0.00,meteobridge,2014-01-14 01:00:00,
2014-01-13 20:05:00,46.2,40.1,30.01,WNW,294,4.9,5.8,79,0.00,,,0.00,meteobridge,2014-01-14 01:05:00,
2014-01-13 20:10:00,46.0,39.6,30.01,West,265,4.0,5.8,78,0.00,,,0.00,meteobridge,2014-01-14 01:10:00,
2014-01-13 20:15:00,46.0,39.6,30.01,WSW,248,5.8,6.3,78,0.00,,,0.00,meteobridge,2014-01-14 01:15:00,
2014-01-13 20:20:00,46.0,39.2,30.01,WNW,283,5.4,6.7,77,0.00,,,0.00,meteobridge,2014-01-14 01:20:00,
2014-01-13 20:25:00,46.0,38.8,30.01,WNW,288,5.4,8.1,76,0.00,,,0.00,meteobridge,2014-01-14 01:25:00,
2014-01-13 20:30:00,46.0,38.5,30.01,West,279,10.1,10.1,75,0.00,,,0.00,meteobridge,2014-01-14 01:30:00,
2014-01-13 20:35:00,45.9,38.1,30.01,West,275,8.1,8.1,74,0.00,,,0.00,meteobridge,2014-01-14 01:35:00,
2014-01-13 20:40:00,45.9,37.8,30.01,WSW,252,5.8,7.6,73,0.00,,,0.00,meteobridge,2014-01-14 01:40:00,
2014-01-13 20:45:00,45.7,37.2,30.01,WSW,251,5.8,8.1,72,0.00,,,0.00,meteobridge,2014-01-14 01:45:00,
2014-01-13 20:51:00,45.7,36.9,30.01,West,280,4.9,8.1,71,0.00,,,0.00,meteobridge,2014-01-14 01:51:00,
2014-01-13 20:56:00,45.5,36.3,30.01,West,269,6.3,8.7,70,0.00,,,0.00,meteobridge,2014-01-14 01:56:00,
2014-01-13 21:01:00,45.3,36.1,30.01,NW,304,3.6,10.1,70,0.00,,,0.00,meteobridge,2014-01-14 02:01:00,
2014-01-13 21:06:00,45.3,35.8,30.01,West,275,8.7,8.7,69,0.00,,,0.00,meteobridge,2014-01-14 02:06:00,
2014-01-13 21:11:00,45.1,35.6,30.01,WNW,288,7.6,8.1,69,0.00,,,0.00,meteobridge,2014-01-14 02:11:00,
2014-01-13 21:16:00,45.1,35.6,30.01,West,280,7.2,7.6,69,0.00,,,0.00,meteobridge,2014-01-14 02:16:00,
2014-01-13 21:21:00,45.0,35.4,30.01,NNW,343,6.3,6.3,69,0.00,,,0.00,meteobridge,2014-01-14 02:21:00,
2014-01-13 21:26:00,45.0,35.4,30.01,WNW,284,5.4,8.3,69,0.00,,,0.00,meteobridge,2014-01-14 02:26:00,
2014-01-13 21:31:00,44.8,35.2,30.03,NW,313,6.3,8.3,69,0.00,,,0.00,meteobridge,2014-01-14 02:31:00,
2014-01-13 21:37:00,44.6,35.1,30.03,NW,315,7.6,8.1,69,0.00,,,0.00,meteobridge,2014-01-14 02:37:00,
2014-01-13 21:42:00,44.6,35.1,30.03,WNW,282,8.1,8.7,69,0.00,,,0.00,meteobridge,2014-01-14 02:42:00,
2014-01-13 21:47:00,44.4,35.2,30.03,WNW,303,5.8,6.7,70,0.00,,,0.00,meteobridge,2014-01-14 02:47:00,
2014-01-13 21:52:00,44.2,35.1,30.03,NW,316,3.1,6.3,70,0.00,,,0.00,meteobridge,2014-01-14 02:52:00,
2014-01-13 21:57:00,44.1,34.9,30.03,West,281,4.0,5.8,70,0.00,,,0.00,meteobridge,2014-01-14 02:57:00,
2014-01-13 22:02:00,43.9,34.7,30.03,WNW,290,4.0,4.9,70,0.00,,,0.00,meteobridge,2014-01-14 03:02:00,
2014-01-13 22:07:00,43.7,34.5,30.03,NW,307,4.0,6.3,70,0.00,,,0.00,meteobridge,2014-01-14 03:07:00,
2014-01-13 22:12:00,43.5,34.3,30.03,WNW,300,5.8,5.8,70,0.00,,,0.00,meteobridge,2014-01-14 03:12:00,
2014-01-13 22:17:00,43.3,34.5,30.06,NNW,330,4.9,5.4,71,0.00,,,0.00,meteobridge,2014-01-14 03:17:00,
2014-01-13 22:22:00,43.2,34.3,30.06,WNW,298,3.6,4.5,71,0.00,,,0.00,meteobridge,2014-01-14 03:22:00,
2014-01-13 22:27:00,43.0,34.2,30.06,WNW,295,4.0,4.9,71,0.00,,,0.00,meteobridge,2014-01-14 03:27:00,
2014-01-13 22:32:00,43.0,34.2,30.03,WNW,302,5.4,8.3,71,0.00,,,0.00,meteobridge,2014-01-14 03:32:00,
2014-01-13 22:38:00,42.8,34.0,30.03,WNW,293,10.1,10.1,71,0.00,,,0.00,meteobridge,2014-01-14 03:38:00,
2014-01-13 22:43:00,42.4,33.6,30.03,WNW,298,6.3,8.1,71,0.00,,,0.00,meteobridge,2014-01-14 03:43:00,
2014-01-13 22:48:00,42.3,33.6,30.09,WNW,289,5.8,7.6,71,0.00,,,0.00,meteobridge,2014-01-14 03:48:00,
2014-01-13 22:53:00,42.1,33.4,30.09,West,274,4.0,9.2,71,0.00,,,0.00,meteobridge,2014-01-14 03:53:00,
2014-01-13 22:58:00,41.9,33.3,30.09,West,269,5.8,6.3,71,0.00,,,0.00,meteobridge,2014-01-14 03:58:00,
2014-01-13 23:03:00,41.7,33.1,30.09,NW,317,5.4,5.8,71,0.00,,,0.00,meteobridge,2014-01-14 04:03:00,
2014-01-13 23:22:00,41.0,32.4,30.12,WNW,299,6.3,8.3,71,0.00,,,0.00,meteobridge,2014-01-14 04:22:00,
2014-01-13 23:27:00,40.6,32.4,30.12,WNW,289,8.3,8.3,72,0.00,,,0.00,meteobridge,2014-01-14 04:27:00,
2014-01-13 23:32:00,40.6,32.4,30.15,WNW,298,5.8,6.3,72,0.00,,,0.00,meteobridge,2014-01-14 04:32:00,
2014-01-13 23:37:00,40.5,32.2,30.15,NW,317,5.8,6.7,72,0.00,,,0.00,meteobridge,2014-01-14 04:37:00,
2014-01-13 23:42:00,40.3,32.0,30.15,NW,307,3.6,3.6,72,0.00,,,0.00,meteobridge,2014-01-14 04:42:00,
2014-01-13 23:47:00,40.1,31.8,30.15,NW,304,4.9,4.9,72,0.00,,,0.00,meteobridge,2014-01-14 04:47:00,
2014-01-13 23:52:00,39.9,31.6,30.15,WNW,298,7.2,7.2,72,0.00,,,0.00,meteobridge,2014-01-14 04:52:00,
2014-01-13 23:57:00,39.7,31.5,30.15,NW,312,8.3,9.6,72,0.00,,,0.00,meteobridge,2014-01-14 04:57:00,